USA 325

Last updated on Thu Jan 08 2026 00:02:52 GMT+0000 (Coordinated Universal Time)

1 51281U 22006B 26006.70962434 -.00000360 00000+0 00000+0 0 9994 2 51281 0.1656 83.9928 0022746 181.1199 218.2610 1.00266333 14512

Satellite not in orbit

USA 325